Ephrata, WA
on Friday, February 1, 2013

Friday
Previous Day Next Day
Daily Summary
 ActualAverageRecord
Temperature
Mean Temperature °F 31°F  
Max Temperature 45°F 39°F 52°F (1971)
Min Temperature 21°F 24°F -24°F (1950)
Degree Days
Heating Degree Days 32 34  
Month to date heating degree days 32 34  
Since 1 July heating degree days 3468 3742  
Cooling Degree Days 0 0  
Month to date cooling degree days 0 0  
Year to date cooling degree days 0 0  
Moisture
Dew Point 27°F   
Average Humidity 77    
Maximum Humidity 92    
Minimum Humidity 62    
Precipitation
Precipitation 0.00 in 0.02 in 0.50 in (1975)
Month to date precipitation 0.00 0.02  
Year to date precipitation 0.19 0.93  
Wind
Wind Speed 6 mph   
Max Wind Speed 12 mph   
Max Gust Speed 13 mph   
Visibility 9 miles   
Events     

Key: T is trace of precipitation, MM is missing value
Source: NWS Daily Summary
Time(PST)TemperatureDew PointHumidity Pressure Visibility Wind DirectionWind SpeedGust SpeedPrecipitationEvents Conditions
12:53 AM 28.0°F 27.0°F 96% 30.24 in 10.0 miles Calm Calm - N/A   Clear
1:53 AM 27.0°F 25.0°F 92% 30.26 in 7.0 miles North 5.8 mph - N/A   Clear
2:53 AM 27.0°F 25.0°F 92% 30.28 in 6.0 miles Calm Calm - N/A   Clear
3:53 AM 26.1°F 24.1°F 92% 30.29 in 5.0 miles NNE 4.6 mph - N/A   Clear
4:53 AM 24.1°F 21.9°F 91% 30.30 in 6.0 miles NNE 5.8 mph - N/A   Clear
5:53 AM 23.0°F 19.9°F 88% 30.33 in 7.0 miles Calm Calm - N/A   Clear
6:53 AM 24.1°F 21.9°F 91% 30.34 in 10.0 miles North 4.6 mph - N/A   Clear
7:53 AM 24.1°F 21.9°F 91% 30.36 in 6.0 miles NNE 5.8 mph - N/A   Clear
8:53 AM 28.9°F 27.0°F 92% 30.38 in 9.0 miles NNE 5.8 mph - N/A   Clear
9:53 AM 33.1°F 30.0°F 89% 30.40 in 10.0 miles NE 5.8 mph - N/A   Clear
10:53 AM 37.0°F 30.9°F 79% 30.40 in 10.0 miles NE 8.1 mph - N/A   Clear
11:53 AM 37.9°F 30.9°F 76% 30.40 in 10.0 miles NNE 6.9 mph - N/A   Clear
1:53 PM 44.1°F 32.0°F 63% 30.40 in 10.0 miles NE 4.6 mph - N/A   Clear
2:53 PM 44.1°F 32.0°F 63% 30.41 in 10.0 miles NNE 10.4 mph - N/A   Clear
3:53 PM 39.9°F 30.0°F 68% 30.42 in 10.0 miles NNE 8.1 mph - N/A   Clear
4:53 PM 35.1°F 28.9°F 78% 30.42 in 10.0 miles North 8.1 mph - N/A   Clear
5:53 PM 32.0°F 28.0°F 85% 30.43 in 10.0 miles North 9.2 mph - N/A   Clear
6:53 PM 33.1°F 28.0°F 82% 30.45 in 10.0 miles North 9.2 mph - N/A   Clear
7:53 PM 30.0°F 27.0°F 88% 30.47 in 10.0 miles NNE 8.1 mph - N/A   Clear
8:53 PM 30.0°F 27.0°F 88% 30.47 in 10.0 miles NNE 8.1 mph - N/A   Clear
9:53 PM 28.9°F 26.1°F 89% 30.49 in 10.0 miles NNE 8.1 mph - N/A   Clear
10:53 PM 28.0°F 25.0°F 88% 30.48 in 10.0 miles North 5.8 mph - N/A   Clear
11:53 PM 27.0°F 24.1°F 89% 30.49 in 10.0 miles North 4.6 mph - N/A   Clear
Moon Phase
Feb. 01 Feb. 03 Feb. 10 Feb. 17 Feb. 25
Sunrise:07:23 AM (PST) Moon Rise:11:43 PM (PST)2/1
Sunset:05:00 PM (PST) Moon Set:09:31 AM (PST)2/1

Copyright © 2014 The Weather Underground, Inc.